Regional Weather Roundup
Issued by NWS

Home | Current Version | Previous Version | Graphics & Text | Print | Product List | Glossary On
Versions: 1 2 3 4 5 6 7 8 9 10 11 12 13 14 15 16 17 18 19 20 21 22 23 24 25 26 27
000
ASUS45 KBOU 261107
RWRCO

WEATHER ROUNDUP FOR COLORADO
NATIONAL WEATHER SERVICE DENVER/BOULDER CO
400 AM MST SUN FEB 26 2017

NOTE: "FAIR" INDICATES FEW OR NO CLOUDS BELOW 12000 FEET WITH NO
SIGNIFICANT WEATHER AND/OR OBSTRUCTIONS TO VISIBILITY.

COZ001>005-013-030-031-261200-
...NORTHWEST COLORADO...

CITY           SKY/WX    TMP DP  RH WIND       PRES   REMARKS
CRAIG          FAIR       4   0  83 W3        29.91S
HAYDEN         FAIR      10   1  67 NE3       29.88S
MEEKER         FAIR       3  -2  79 CALM      29.91S
MOUNT WERNER   NOT AVBL
STEAMBOAT SPGS CLOUDY    10   2  71 CALM      29.86S
WALDEN         NOT AVBL
$$

COZ006>008-011-261200-
...WEST CENTRAL VALLEYS...

CITY           SKY/WX    TMP DP  RH WIND       PRES   REMARKS
GRAND JUNCTION FAIR      18  10  71 CALM      29.94S
MONTROSE       CLOUDY    24  16  71 S3        29.93S
EAGLE          CLOUDY    13   8  81 E5        29.91S WCI   5
RIFLE          FAIR      16  11  80 CALM      29.93S
DELTA          MOCLDY    24  11  57 N5        29.93S WCI  19
NUCLA          CLOUDY    27  21  80 CALM      29.96R
$$

COZ017>023-064>068-261200-
...SOUTHWEST COLORADO...

CITY           SKY/WX    TMP DP  RH WIND       PRES   REMARKS
DURANGO        FAIR      23   7  50 SW7       29.85S WCI  15
CORTEZ         FAIR      22  17  81 SE3       29.89S
PAGOSA SPRINGS FAIR      18   8  65 CALM      29.83S
TELLURIDE      LGT SNOW  14  13  92 CALM      29.83F
WOLF CREEK PAS LGT SNOW   3   1  92 SW9       29.77S WCI -11
$$

COZ009-010-012-014-032>034-037-058>063-261200-
...CENTRAL COLORADO...

CITY           SKY/WX    TMP DP  RH WIND       PRES   REMARKS
ASPEN          CLOUDY     9   6  88 CALM      29.83R
BUENA VISTA    FAIR      15  -1  47 CALM      29.76S
COPPER MTN     FAIR       1  -9  60 MISG      29.63S
BERTHOUD PASS  MOCLDY    -9 -18  64 NW35G40   29.55S WCI -40
COTTONWOOD PAS MOCLDY    14  -2  48 N8G17     29.67F WCI   3
GUNNISON       FAIR       9   5  84 CALM      29.85S
KREMMLING      FAIR       7   1  78 E3        29.86S
LEADVILLE      FAIR       2  -6  69 N8        29.72R WCI -12
MONARCH PASS   CLOUDY     1  -4  78 W43G51    29.71F WCI -27
SALIDA         FAIR      22   2  41 W14       29.85R WCI   9
SUNLIGHT       NOT AVBL
WILKERSON PASS FAIR       3 -11  51 W16G33    29.61S WCI -16
$$

COZ069>075-261200-
...SAN LUIS VALLEY/SANGRE DE CRISTO MOUNTAINS...

CITY           SKY/WX    TMP DP  RH WIND       PRES   REMARKS
ALAMOSA        FAIR      15   8  73 N6        29.80S WCI   6
LA VETA PASS   CLOUDY    12   5  73 W5        29.71F WCI   4
SAGUACHE       FAIR      18   7  62 NW16      29.80F WCI   3
$$

COZ035-036-038>040-261200-
...NORTHERN COLORADO FRONT RANGE...

CITY           SKY/WX    TMP DP  RH WIND       PRES   REMARKS
DENVER INTL AP FAIR      19   7  59 E7        29.77R WCI  10
DMNS CITY PARK   N/A     24   2  40 MISG      29.78R
AURORA         PTCLDY    16   0  48 SE7       29.77R WCI   7
FRONT RANGE AP FAIR      21  10  63 NE9       29.77S WCI  11
ERIE MUNI ARPT FAIR      21   8  58 NW5       29.78R WCI  14
BOULDER MUN AP FAIR      19   9  63 CALM      29.76S
CENTENNIAL     FAIR      15   3  59 SE5       29.76R WCI   8
BROOMFIELD     FAIR      23   3  42 S3        29.76S
FORT COLLINS   FAIR      16  11  80 S9        29.79R WCI   4
LONGMONT       FAIR      21  10  63 W9        29.81R WCI  10
$$

COZ041-046-047-076>085-087-088-261200-
...PIKES PEAK/PALMER DIVIDE AND SOUTHERN FOOTHILLS...

CITY           SKY/WX    TMP DP  RH WIND       PRES   REMARKS
COLO. SPRINGS  FAIR      20  -2  38 NE7       29.75S WCI  11
A. F. ACADEMY  FAIR      22  -2  35 VRB3      29.73R
SCHRIEVER AFB  FAIR      20  -1  38 N10       29.76S WCI   9
ELLICOTT       NOT AVBL
FALCON         FAIR      15   0  51 N3        29.76R
FORT CARSON    FAIR      22  -1  37 E10       29.75S WCI  11
LIMON          FAIR       2  -1  88 N3        29.79S
MONUMENT HILL  FAIR       9   0  66 S5        29.75R WCI   0
TRINIDAD       FAIR      16   0  49 NW10      29.79S WCI   4
$$

COZ042>045-048>051-090-091-261200-
...NORTHEAST COLORADO...

CITY           SKY/WX    TMP DP  RH WIND       PRES   REMARKS
GREELEY ARPT   FAIR      14   9  80 SE6       29.81F WCI   5
AKRON          FAIR      12   4  70 N6        29.81F WCI   3
BURLINGTON     FAIR      10   3  73 NW8       29.83S WCI  -2
WRAY           NOT AVBL
STERLING       FAIR      16   9  73 SW3       29.82S
HOLYOKE        FAIR      19  12  73 W7        29.85S WCI  10
FORT MORGAN    FAIR      20   6  54 CALM      29.83S
$$

COZ086-089-092>099-261200-
...SOUTHEAST COLORADO...

CITY           SKY/WX    TMP DP  RH WIND       PRES   REMARKS
PUEBLO         FAIR      16   0  49 CALM      29.80S
LA JUNTA       FAIR      17   4  56 N6        29.83R WCI   9
LAMAR          FAIR       8   1  73 S8        29.83R WCI  -4
SPRINGFIELD      N/A     17   2  51 SW7       29.80S WCI   8
$$




USA.gov is the U.S. government's official web portal to all federal, state and local government web resources and services.